| time (UTC) | temp F | wind direction | speed MPH | gust MPH | rain 1hr in | rain 24hr in | rain mn in | humidity % | barometer mb |
| 20260503230216 | 59 | 126 | 2.0 | 4.0 | 0.00 | 0.00 | 0.00 | 81 | 1022.2 |
| 20260503225003 | 59 | 147 | 2.0 | 4.0 | 0.00 | 0.00 | 0.00 | 81 | 1022.4 |
| 20260503224004 | 59 | 139 | 2.0 | 3.0 | 0.00 | 0.00 | 0.00 | 81 | 1022.5 |
| 20260503223004 | 59 | 138 | 1.0 | 3.0 | 0.00 | 0.00 | 0.00 | 81 | 1022.5 |
| 20260503222003 | 60 | 145 | 2.0 | 4.0 | 0.00 | 0.00 | 0.00 | 81 | 1022.5 |
| 20260503221003 | 60 | 142 | 2.0 | 4.0 | 0.00 | 0.00 | 0.00 | 81 | 1022.5 |
| 20260503220005 | 60 | 151 | 2.0 | 5.0 | 0.00 | 0.00 | 0.00 | 81 | 1022.4 |
| 20260503215003 | 60 | 151 | 2.0 | 5.0 | 0.00 | 0.00 | 0.00 | 81 | 1022.4 |
| 20260503214003 | 60 | 151 | 2.0 | 4.0 | 0.00 | 0.00 | 0.00 | 81 | 1022.3 |
| 20260503213003 | 60 | 153 | 2.0 | 5.0 | 0.00 | 0.00 | 0.00 | 81 | 1022.2 |
| 20260503212003 | 60 | 158 | 1.0 | 4.0 | 0.00 | 0.00 | 0.00 | 81 | 1022.2 |
| 20260503211003 | 60 | 200 | 2.0 | 4.0 | 0.00 | 0.00 | 0.00 | 81 | 1022.1 |
| 20260503210005 | 60 | 215 | 2.0 | 7.0 | 0.00 | 0.00 | 0.00 | 81 | 1022.2 |
| 20260503205213 | 60 | 220 | 2.0 | 4.0 | 0.00 | 0.00 | 0.00 | 80 | 1022.2 |
| 20260503204214 | 60 | 225 | 2.0 | 8.0 | 0.00 | 0.00 | 0.00 | 80 | 1022.2 |
| 20260503203003 | 60 | 222 | 3.0 | 7.0 | 0.00 | 0.00 | 0.00 | 80 | 1022.1 |
| 20260503202003 | 60 | 226 | 3.0 | 7.0 | 0.00 | 0.00 | 0.00 | 79 | 1022.0 |
| 20260503201004 | 61 | 218 | 2.0 | 7.0 | 0.00 | 0.00 | 0.00 | 78 | 1021.9 |
| 20260503200004 | 61 | 197 | 1.0 | 6.0 | 0.00 | 0.00 | 0.00 | 77 | 1021.9 |
| 20260503195004 | 61 | 211 | 2.0 | 5.0 | 0.00 | 0.00 | 0.00 | 77 | 1021.8 |
| 20260503194003 | 61 | 205 | 1.0 | 6.0 | 0.00 | 0.00 | 0.00 | 77 | 1021.7 |
| 20260503193003 | 61 | 209 | 2.0 | 5.0 | 0.00 | 0.00 | 0.00 | 77 | 1021.6 |
| 20260503192003 | 61 | 218 | 3.0 | 6.0 | 0.00 | 0.00 | 0.00 | 77 | 1021.6 |
| 20260503191003 | 61 | 224 | 3.0 | 7.0 | 0.00 | 0.00 | 0.00 | 77 | 1021.5 |
| 20260503190004 | 61 | 224 | 3.0 | 9.0 | 0.00 | 0.00 | 0.00 | 76 | 1021.5 |
| 20260503185003 | 62 | 228 | 2.0 | 7.0 | 0.00 | 0.00 | 0.00 | 75 | 1021.2 |
| 20260503184003 | 62 | 233 | 3.0 | 8.0 | 0.00 | 0.00 | 0.00 | 75 | 1021.0 |
| 20260503183004 | 63 | 234 | 3.0 | 9.0 | 0.00 | 0.00 | 0.00 | 74 | 1021.0 |
| 20260503182004 | 63 | 232 | 3.0 | 7.0 | 0.00 | 0.00 | 0.00 | 73 | 1020.9 |
| 20260503181004 | 64 | 235 | 3.0 | 8.0 | 0.00 | 0.00 | 0.00 | 72 | 1021.0 |
| 20260503180004 | 65 | 246 | 3.0 | 8.0 | 0.00 | 0.00 | 0.00 | 70 | 1020.8 |
| 20260503175215 | 66 | 243 | 4.0 | 7.0 | 0.00 | 0.00 | 0.00 | 70 | 1020.7 |
| 20260503174216 | 67 | 236 | 4.0 | 12.0 | 0.00 | 0.00 | 0.00 | 67 | 1020.5 |
| 20260503173003 | 69 | 227 | 2.0 | 9.0 | 0.00 | 0.00 | 0.00 | 63 | 1020.3 |
| 20260503172003 | 70 | 238 | 2.0 | 7.0 | 0.00 | 0.00 | 0.00 | 61 | 1020.3 |
| 20260503171003 | 70 | 237 | 2.0 | 7.0 | 0.00 | 0.00 | 0.00 | 60 | 1020.3 |
| 20260503151003 | 72 | 238 | 5.0 | 10.0 | 0.00 | 0.00 | 0.00 | 56 | 1020.6 |
| 20260503140217 | 72 | 246 | 7.0 | 12.0 | 0.00 | 0.00 | 0.00 | 54 | 1021.2 |
| 20260503131003 | 72 | 239 | 6.0 | 14.0 | 0.00 | 0.00 | 0.00 | 54 | 1021.5 |
| 20260503100214 | 67 | 280 | 2.0 | 6.0 | 0.00 | 0.00 | 0.00 | 63 | 1022.7 |
| 20260503081003 | 62 | 264 | 2.0 | 5.0 | 0.00 | 0.00 | 0.00 | 72 | 1023.6 |
| 20260503080216 | 61 | 252 | 2.0 | 5.0 | 0.00 | 0.00 | 0.00 | 71 | 1023.5 |
| 20260503072003 | 60 | 74 | 1.0 | 3.0 | 0.00 | 0.00 | 0.00 | 73 | 1023.9 |
| 20260503071004 | 59 | 253 | 1.0 | 2.0 | 0.00 | 0.00 | 0.00 | 73 | 1024.0 |
| 20260503055003 | 52 | 29 | 1.0 | 4.0 | 0.00 | 0.00 | 0.00 | 79 | 1024.0 |
| 20260503054003 | 52 | 331 | 0.0 | 3.0 | 0.00 | 0.00 | 0.00 | 80 | 1023.8 |
| 20260503053003 | 52 | 255 | 1.0 | 1.0 | 0.00 | 0.00 | 0.00 | 80 | 1023.8 |
| 20260503052004 | 52 | 69 | 0.0 | 2.0 | 0.00 | 0.00 | 0.00 | 79 | 1023.6 |
| 20260503051003 | 53 | 61 | 1.0 | 1.0 | 0.00 | 0.00 | 0.00 | 78 | 1023.6 |
| 20260503050218 | 52 | 51 | 1.0 | 2.0 | 0.00 | 0.00 | 0.00 | 80 | 1023.6 |
| 20260503045003 | 51 | 3 | 2.0 | 5.0 | 0.00 | 0.00 | 0.00 | 80 | 1023.7 |
| 20260503044003 | 50 | 288 | 1.0 | 3.0 | 0.00 | 0.00 | 0.00 | 82 | 1023.7 |
| 20260503043003 | 49 | 62 | 2.0 | 4.0 | 0.00 | 0.00 | 0.00 | 83 | 1023.4 |
| 20260503042003 | 49 | 65 | 2.0 | 4.0 | 0.00 | 0.00 | 0.00 | 83 | 1023.3 |
| 20260503041004 | 49 | 63 | 1.0 | 3.0 | 0.00 | 0.00 | 0.00 | 82 | 1023.4 |
| 20260503040003 | 50 | 46 | 0.0 | 1.0 | 0.00 | 0.00 | 0.00 | 81 | 1023.5 |
| 20260503035004 | 50 | 295 | 0.0 | 1.0 | 0.00 | 0.00 | 0.00 | 81 | 1023.4 |
| 20260503034004 | 50 | 34 | 0.0 | 1.0 | 0.00 | 0.00 | 0.00 | 80 | 1023.4 |
| 20260503033003 | 51 | 242 | 0.0 | 1.0 | 0.00 | 0.00 | 0.00 | 80 | 1023.4 |
| 20260503032003 | 51 | 252 | 1.0 | 2.0 | 0.00 | 0.00 | 0.00 | 80 | 1023.3 |
| 20260503031003 | 51 | 266 | 0.0 | 2.0 | 0.00 | 0.00 | 0.00 | 81 | 1023.3 |
| 20260503030004 | 50 | 0 | 0.0 | 0.0 | 0.00 | 0.00 | 0.00 | 82 | 1023.3 |
| 20260503025215 | 50 | 0 | 0.0 | 0.0 | 0.00 | 0.00 | 0.00 | 82 | 1023.4 |
| 20260503024003 | 50 | 0 | 0.0 | 0.0 | 0.00 | 0.00 | 0.00 | 81 | 1023.4 |
| 20260503023003 | 50 | 74 | 0.0 | 1.0 | 0.00 | 0.00 | 0.00 | 81 | 1023.4 |
| 20260503022003 | 50 | 74 | 0.0 | 1.0 | 0.00 | 0.00 | 0.00 | 80 | 1023.4 |
| 20260503021004 | 51 | 0 | 0.0 | 0.0 | 0.00 | 0.00 | 0.00 | 79 | 1023.5 |
| 20260503020004 | 52 | 0 | 0.0 | 0.0 | 0.00 | 0.00 | 0.00 | 79 | 1023.3 |
| 20260503015003 | 51 | 0 | 0.0 | 0.0 | 0.00 | 0.00 | 0.00 | 80 | 1023.5 |
| 20260503014003 | 51 | 0 | 0.0 | 0.0 | 0.00 | 0.00 | 0.00 | 80 | 1023.6 |
| 20260503013003 | 51 | 52 | 0.0 | 2.0 | 0.00 | 0.00 | 0.00 | 80 | 1023.5 |
| 20260503012004 | 52 | 0 | 0.0 | 0.0 | 0.00 | 0.00 | 0.00 | 77 | 1023.4 |
| 20260503011004 | 53 | 0 | 0.0 | 0.0 | 0.00 | 0.00 | 0.00 | 76 | 1023.5 |
| 20260503010004 | 53 | 0 | 0.0 | 0.0 | 0.00 | 0.00 | 0.00 | 74 | 1023.6 |
| 20260503005003 | 56 | 112 | 0.0 | 2.0 | 0.00 | 0.00 | 0.00 | 72 | 1023.6 |
| 20260503004003 | 55 | 121 | 0.0 | 1.0 | 0.00 | 0.00 | 0.00 | 73 | 1023.8 |
| 20260503003003 | 55 | 0 | 0.0 | 0.0 | 0.00 | 0.00 | 0.00 | 72 | 1023.8 |
| 20260503002004 | 57 | 162 | 0.0 | 2.0 | 0.00 | 0.00 | 0.00 | 71 | 1023.9 |
| 20260503001003 | 57 | 144 | 1.0 | 3.0 | 0.00 | 0.00 | 0.00 | 70 | 1024.0 |
| 20260503000004 | 58 | 138 | 3.0 | 4.0 | 0.00 | 0.00 | 0.00 | 69 | 1024.1 |
| 20260502235003 | 58 | 137 | 4.0 | 6.0 | 0.00 | 0.00 | 0.00 | 69 | 1024.1 |
| 20260502234212 | 58 | 136 | 4.0 | 8.0 | 0.00 | 0.00 | 0.00 | 68 | 1024.1 |
| 20260502233214 | 58 | 132 | 4.0 | 8.0 | 0.00 | 0.00 | 0.00 | 68 | 1024.3 |
| 20260502232003 | 57 | 136 | 4.0 | 8.0 | 0.00 | 0.00 | 0.00 | 69 | 1024.5 |
| 20260502231003 | 57 | 136 | 4.0 | 7.0 | 0.00 | 0.00 | 0.00 | 69 | 1024.5 |